Regional Weather Roundup
Issued by NWS Wakefield, VA

Home | Current Version | Previous Version | Graphics & Text | Print | Product List | Glossary On
Versions: 1 2 3 4 5 6 7 8 9 10 11 12 13 14 15 16 17 18 19 20 21 22 23 24 25 26 27 28 29 30 31 32 33 34 35 36 37 38 39 40 41 42 43 44 45 46 47 48 49 50
000
ASUS41 KAKQ 261810
RWRAKQ

REGIONAL WEATHER ROUNDUP
NATIONAL WEATHER SERVICE WAKEFIELD VA
100 PM EST THU FEB 26 2015

Note: "fair" indicates few or no clouds below 12,000 feet with no
significant weather and/or obstructions to visibility. * = Denotes
station may not report precipitation (e.g., rain,snow,etc.),
thunder or fog.

VAZ042-051-052>054-056-261900-
NORTHERN VIRGINIA

CITY           SKY/WX    TMP DP  RH WIND       PRES   REMARKS
WASH NATIONAL  CLOUDY    35  24  64 NE8       29.90F
DULLES         CLOUDY    31  23  72 N9        29.90F
FORT BELVOIR   CLOUDY    36  25  64 VRB7      29.91F
QUANTICO       CLOUDY    35  25  66 NE8       29.92F
FREDERICKSBRG* CLOUDY    37  28  70 N6        29.89S
STAFFORD*      CLOUDY    34  25  68 N6        29.93S
WARRENTON      CLOUDY    35  31  85 NE7       29.90S
CULPEPER*      PTSUNNY   34  27  75 N5        29.91R
MANASSAS*      NOT AVBL
LEESBURG*      CLOUDY    32  27  80 N12       29.92S WCI  23
WINCHESTER     CLOUDY    32  21  64 CALM      29.90F
FRONT ROYAL*   CLOUDY    30  25  80 N3        29.89S
LURAY*         CLOUDY    34  28  80 N9        29.89R
$$

VAZ048-049-060>072-079>083-261900-
CENTRAL AND SOUTH CENTRAL VIRGINIA

CITY           SKY/WX    TMP DP  RH WIND       PRES   REMARKS
RICHMOND       CLOUDY    35  27  72 N14       29.88R
CHESTERFIELD*  CLOUDY    36  19  51 N12       29.88R
PETERSBURG*    CLOUDY    35  31  85 N8        29.88S
HANOVER        CLOUDY    35  27  72 VRB6      29.91R
TAPPAHANNOCK*  CLOUDY    34  26  72 N7        29.89R
QUINTON*       CLOUDY    32  30  91 N8        29.88R
CHARLOTTSVILLE CLOUDY    34  24  67 NE7       29.89R
GORDONSVILLE*  CLOUDY    32  25  74 N6        29.90S
ORANGE*        CLOUDY    34  28  80 NW6       29.92R
LOUISA*        CLOUDY    34  27  75 N3        29.89R
BUMPASS*       CLOUDY    33  26  76 N5        29.89R
FARMVILLE*     CLOUDY    36  28  73 NE6       29.90R
CREWE*         CLOUDY    34  26  73 NE5       29.88S
FORT PICKETT*  CLOUDY    33  28  80 N7        29.88S
CHASE CITY*    CLOUDY    35  31  85 N7        29.89S
CLARKSVILLE*   CLOUDY    32  28  86 N7        29.88S
SOUTH HILL*    CLOUDY    33  28  81 N10       29.93S WCI  24
LAWRENCEVILLE* CLOUDY    33  30  88 N7        29.86S
EMPORIA*       LGT SNOW  32  30  93 NW10      29.88R WCI  24
$$

VAZ088>098-261900-
SOUTHEAST VIRGINIA

CITY           SKY/WX    TMP DP  RH WIND       PRES   REMARKS
NORFOLK        LGT SNOW  32  29  88 N21G28    29.82R FOG     WCI  20
VIRGINIA BEACH CLOUDY    34  32  92 N14       29.82R FOG     WCI  25
NORFOLK NAVAL  CLOUDY    35  29  78 N17       29.85R FOG     WCI  25
WEST POINT*    CLOUDY    36  30  81 N6        29.88R
SALUDA*        CLOUDY    32  28  85 N12       29.85R WCI  23
NEWPORT NEWS   LGT SNOW  36  30  79 N12       29.84R
LANGLEY AFB    LGT SNOW  32  28  86 N14G22    29.83S FOG     WCI  22
FORT EUSTIS    LGT RAIN  34  34  99 NE8       29.83R
WILLIAMSBURG*  MOSUNNY   37  36  93 N5        29.86R
HR EXEC AP*    CLOUDY    32  28  86 N9G16     29.86R
FRANKLIN*      CLOUDY    34  31  88 N7        29.85R
WAKEFIELD      CLOUDY    35  29  78 N10       29.86R
$$

VAZ020-022-025-037-045-261900-
WEST CENTRAL AND SOUTHWEST VIRGINIA

CITY           SKY/WX    TMP DP  RH WIND       PRES   REMARKS
STAUNTON*      CLOUDY    34  24  67 NE3       29.89R
WAYNESBORO*    CLOUDY    31  25  77 CALM      29.86R
HOT SPRINGS VA CLOUDY    27  22  79 NW7       29.73S
LYNCHBURG      CLOUDY    33  25  72 NE6       29.90S
DANVILLE       CLOUDY    35  27  72 N7        29.91S
SOUTH BOSTON*  CLOUDY    33  28  82 NE7       29.91R
MARTINSVILLE   CLOUDY    36  29  75 E5        29.92S
ROANOKE        PTSUNNY   36  25  64 CALM      29.89S
BLACKSBURG     CLOUDY    32  23  69 CALM      29.87F
DUBLIN*        CLOUDY    37  27  67 CALM      29.86S
MARION*        CLOUDY    34  25  69 SW7       29.86S
HILLSVILLE*    CLOUDY    32  25  76 NW6       29.82S
RICHLANDS*     CLOUDY    29  26  88 NW6       29.86R
WISE*          CLOUDY    32  27  80 N8        29.88S
ABINGDON*      CLOUDY    36  29  77 W6        29.87S
$$

MDZ021>025-VAZ099-100-261900-
SOUTHERN MARYLAND AND THE DELMARVA PENINSULA

CITY           SKY/WX    TMP DP  RH WIND       PRES   REMARKS
PATUXENT RIVER CLOUDY    30  25  81 N14       29.88R WCI  19
BAY BRIDGE APT   N/A     32  21  64 N13G20    29.89F WCI  22
LEONARDTOWN    CLOUDY    30  27  86 N5        29.88F
DOVER          MOSUNNY   31  20  62 N20       29.87F WCI  19
GEORGETOWN     CLOUDY    33  23  66 NE14G25   29.86S WCI  23
EASTON         CLOUDY    34  28  80 NE10      29.91S
CAMBRIDGE      CLOUDY    34  28  80 N8        29.86S
SALISBURY      CLOUDY    32  25  75 N12       29.84S WCI  23
OCEAN CITY     MIX PCPN  29  25  85 NE22G30   29.83R WCI  15
WALLOPS ISLAND LGT SNOW  31  27  85 NE17G26   29.82R FOG     WCI  19
ACCOMACK*      CLOUDY    32  28  86 N9G16     29.81R
$$

NCZ012>017-030>032-261900-
NORTH CENTRAL AND EASTERN NORTH CAROLINA

CITY           SKY/WX    TMP DP  RH WIND       PRES   REMARKS
ROANOKE RAPIDS CLOUDY    34  32  93 N10       29.86R
RALEIGH        CLOUDY    34  28  79 N7        29.88S
ELIZABETH CITY NOT AVBL
AHOSKIE*       CLOUDY    33  31  93 N9        29.85S
EDENTON*       CLOUDY    34  32  91 N13       29.81R
CURRITUCK*     CLOUDY    34  32  93 N18G28    29.79R FOG     WCI  23
KILL DEVIL HLS CLOUDY    36  36 100 N13G23    29.73R FOG
MANTEO         CLOUDY    36  34  93 N21G28    29.77R WCI  24
CAPE HATTERAS  CLOUDY    36  35  96 N10G22    29.74R FOG
TARBORO*       CLOUDY    35  32  90 N7        29.87R
GOLDSBORO      CLOUDY    36  35  98 N10       29.84R
WASHINGTON     CLOUDY    35  32  89 N12       29.84R
GREENVILLE     CLOUDY    34  32  93 N8        29.88R
NEW BERN       CLOUDY    37  33  85 N9        29.84R
WILMINGTON     CLOUDY    39  33  79 N12       29.85R
$$

VAZ048-261900-
ELSEWHERE

CITY           SKY/WX    TMP DP  RH WIND       PRES   REMARKS
HARRISBURG PA  MOSUNNY   27  16  63 NE7       29.94F
BALTIMORE      CLOUDY    32  21  64 N8        29.89F
ANNAPOLIS      CLOUDY    32  23  69 NW14      29.89F WCI  22
ANDREWS AFB    CLOUDY    32  25  74 N10       29.88S WCI  24
PHILADELPHIA   PTSUNNY   31  14  49 NE16G25   29.91F WCI  20
HENDERSON NC     N/A     34  28  77 N8        29.88S
GREENSBORO     CLOUDY    34  28  79 NE6       29.88S
ROCKY MOUNT    NOT AVBL
$$

VAZ100-261900-
MARINE

STATION/POSITION TIME  TEMP    WIND        PRES    WAVE   SWELL
                       AIR SEA DIR/SP/G            HT/PER HT/PER
                 (UTC) (F)     (DEG/KT/KT) (MB)    (FT/S) (FT/S)
BRANDYWINE LGT   1800   27 29   40/ 19/ 20 1011.2F
CAPE MAY NJ      1800   28 32   30/  6/ 11 1010.7S
LEWES DE         1800   28 30   20/ 19/ 22 1011.0S
15NM E FENWICK I 1800   32 36              1007.8F  10/ 7
OCEAN-CITY-INLET 1800   28 32   30/ 15/ 25 1009.4R
WACHAPREAGUE VA  1800   31 31   20/ 12/ 16 1009.4R
THOMAS POINT MD  1800   29 31   20/ 14/ 16 1013.0S
COVE POINT MD    1800   27      20/ 19/ 22 1011.3R
SOLOMONS ISLAND  1800      33                N/A
BISHOPS HEAD MD  1800   31 31   30/ 11/ 16 1010.0S
CAMBRIDGE MD     1800   29 32   10/ 12/ 16 1011.1R
LEWISETTA VA     1800   30 32   10/  4/ 11 1011.3R
RAPPAHANNOCK LGT 1800          360/ 19/ 21 1010.2R
STINGRAY PT      1800   30      10/ 17/ 23   N/A
YORK RVR RNG VA  1800   31      20/ 20/ 24 1009.2S
YORKTOWN VA      1800   31 32  360/ 10/ 15 1010.3R
DOMINION TERM VA 1800   32      10/ 14/ 20 1009.9R
KIPTOPEKE VA     1800      36   10/ 12/ 16   N/A
CHES BAY BRIDGE  1800   31 32  350/ 13/ 15 1008.8S
CAPE HENRY VA    1800   31     360/ 15/ 17 1007.9R
CHESAPEAKE LGHT  1700   33      10/ 31/ 35 1007.4R
WILLOUBY STN VA  1800   31     360/ 17/ 20 1010.1R
S CRANEY ISL VA  1800          360/  7/  8 1009.7R
CAPE HENRY BUOY  1800      35                N/A    10/ 8   2/11
1ST LANDING BUOY 1800   31                 1008.8S
OFFSHORE WE BUOY 1800      38                N/A    11/ 8   5/13
64NM E OF VA BCH 1800   47 53   30/ 29/ 37 1003.3R  15/ 9  10/ 9
DUCK PIER NC     1800   34 35  360/ 28/ 33 1005.9R
44100 DUCK FRF   1700      37                N/A    12/ 8   2/11
44056 DUCK FRF   1800      36                N/A    11/ 8   2/11
OREGON INLET NC  1800   36 37  340/ 16/ 25 1006.6R
HATTERAS NC      1800   36 41  350/ 23/ 27 1007.1R
CAPE LOOKOUT NC  1700   37     360/ 17/ 22 1008.0R
$$


USA.gov is the U.S. government's official web portal to all federal, state and local government web resources and services.